Time,TemperatureF,DewpointF,PressureIn,WindDirection,WindDirectionDegrees,WindSpeedMPH,WindSpeedGustMPH,Humidity,HourlyPrecipIn,Conditions,Clouds,dailyrainin,SolarRadiationWatts/m^2,SoftwareType,DateUTC
2014-03-08 00:01:00,36.0,26.1,29.98,SW,229,2.0,2.0,67,0.00,,,0.00,9.00,VWS V14.01,2014-03-08 05:01:00,
2014-03-08 00:06:00,36.0,26.1,29.98,WSW,237,3.0,3.0,67,0.00,,,0.00,9.00,VWS V14.01,2014-03-08 05:06:00,
2014-03-08 00:11:00,35.9,26.0,29.98,SW,231,1.0,4.0,67,0.00,,,0.00,9.00,VWS V14.01,2014-03-08 05:11:00,
2014-03-08 00:16:00,35.9,26.4,29.98,WSW,237,2.0,3.0,68,0.00,,,0.00,9.00,VWS V14.01,2014-03-08 05:16:00,
2014-03-08 00:21:00,35.9,26.4,29.98,WSW,245,2.0,3.0,68,0.00,,,0.00,9.00,VWS V14.01,2014-03-08 05:21:00,
2014-03-08 00:26:00,35.9,26.7,29.98,WSW,239,2.0,3.0,69,0.00,,,0.00,9.00,VWS V14.01,2014-03-08 05:26:00,
2014-03-08 00:31:00,35.9,26.7,29.98,SW,226,2.0,2.0,69,0.00,,,0.00,9.00,VWS V14.01,2014-03-08 05:31:00,
2014-03-08 00:36:00,35.9,26.7,29.98,SW,220,2.0,2.0,69,0.00,,,0.00,9.00,VWS V14.01,2014-03-08 05:36:00,
2014-03-08 00:41:00,35.9,26.7,29.98,SW,231,2.0,4.0,69,0.00,,,0.00,9.00,VWS V14.01,2014-03-08 05:41:00,
2014-03-08 00:46:00,35.8,26.6,29.98,WSW,237,1.0,2.0,69,0.00,,,0.00,9.00,VWS V14.01,2014-03-08 05:46:00,
2014-03-08 00:51:00,35.6,26.8,29.98,SW,217,1.0,3.0,70,0.00,,,0.00,9.00,VWS V14.01,2014-03-08 05:51:00,
2014-03-08 00:56:00,35.6,26.8,29.98,SW,220,3.0,3.0,70,0.00,,,0.00,9.00,VWS V14.01,2014-03-08 05:56:00,
2014-03-08 01:01:00,35.8,27.0,29.98,WSW,238,4.0,4.0,70,0.00,,,0.00,9.00,VWS V14.01,2014-03-08 06:01:00,
2014-03-08 01:05:00,35.9,27.1,29.98,SW,232,2.0,4.0,70,0.00,,,0.00,9.00,VWS V14.01,2014-03-08 06:05:00,
2014-03-08 01:10:00,35.9,27.1,29.98,West,281,3.0,5.0,70,0.00,,,0.00,9.00,VWS V14.01,2014-03-08 06:10:00,
2014-03-08 01:15:00,36.0,27.2,29.98,WSW,247,2.0,5.0,70,0.00,,,0.00,9.00,VWS V14.01,2014-03-08 06:15:00,
2014-03-08 01:20:00,36.0,27.2,29.98,WSW,240,4.0,4.0,70,0.00,,,0.00,9.00,VWS V14.01,2014-03-08 06:20:00,
2014-03-08 01:25:00,36.0,27.2,29.98,SW,220,3.0,4.0,70,0.00,,,0.00,9.00,VWS V14.01,2014-03-08 06:25:00,
2014-03-08 01:30:00,36.2,27.4,29.98,WSW,250,1.0,5.0,70,0.00,,,0.00,9.00,VWS V14.01,2014-03-08 06:30:00,
2014-03-08 01:35:00,36.2,27.4,29.98,SW,231,2.0,4.0,70,0.00,,,0.00,9.00,VWS V14.01,2014-03-08 06:35:00,
2014-03-08 01:40:00,36.2,27.4,29.98,SW,226,3.0,4.0,70,0.00,,,0.00,9.00,VWS V14.01,2014-03-08 06:40:00,
2014-03-08 01:45:00,36.3,27.5,29.98,SW,236,2.0,5.0,70,0.00,,,0.00,9.00,VWS V14.01,2014-03-08 06:45:00,
2014-03-08 01:50:00,36.3,27.5,29.98,SW,220,0.0,3.0,70,0.00,,,0.00,9.00,VWS V14.01,2014-03-08 06:50:00,
2014-03-08 01:55:00,36.3,27.5,29.98,WSW,250,1.0,4.0,70,0.00,,,0.00,9.00,VWS V14.01,2014-03-08 06:55:00,
2014-03-08 02:00:00,36.2,27.7,29.98,WSW,237,1.0,3.0,71,0.00,,,0.00,9.00,VWS V14.01,2014-03-08 07:00:00,
2014-03-08 02:05:00,36.2,27.7,29.98,SW,228,1.0,3.0,71,0.00,,,0.00,9.00,VWS V14.01,2014-03-08 07:05:00,
2014-03-08 02:10:00,36.0,27.5,29.98,SW,228,1.0,2.0,71,0.00,,,0.00,9.00,VWS V14.01,2014-03-08 07:10:00,
2014-03-08 02:15:00,35.9,27.4,29.98,NW,309,0.0,4.0,71,0.00,,,0.00,9.00,VWS V14.01,2014-03-08 07:15:00,
2014-03-08 02:20:00,35.9,27.8,29.98,WNW,289,4.0,5.0,72,0.00,,,0.00,9.00,VWS V14.01,2014-03-08 07:20:00,
2014-03-08 02:25:00,35.9,27.8,29.98,West,262,6.0,6.0,72,0.00,,,0.00,9.00,VWS V14.01,2014-03-08 07:25:00,
2014-03-08 02:30:00,36.5,28.4,29.98,NW,306,3.0,8.0,72,0.00,,,0.00,9.00,VWS V14.01,2014-03-08 07:30:00,
2014-03-08 02:35:00,36.8,28.3,29.98,NW,316,3.0,5.0,71,0.00,,,0.00,9.00,VWS V14.01,2014-03-08 07:35:00,
2014-03-08 02:40:00,37.0,28.1,29.98,WNW,284,3.0,5.0,70,0.00,,,0.00,9.00,VWS V14.01,2014-03-08 07:40:00,
2014-03-08 02:45:00,37.2,28.3,29.97,WNW,295,1.0,4.0,70,0.00,,,0.00,9.00,VWS V14.01,2014-03-08 07:45:00,
2014-03-08 02:50:00,37.2,28.3,29.97,WNW,294,2.0,3.0,70,0.00,,,0.00,9.00,VWS V14.01,2014-03-08 07:50:00,
2014-03-08 02:55:00,37.2,28.0,29.97,WNW,297,2.0,5.0,69,0.00,,,0.00,9.00,VWS V14.01,2014-03-08 07:55:00,
2014-03-08 03:00:00,37.3,28.1,29.98,WNW,283,3.0,6.0,69,0.00,,,0.00,9.00,VWS V14.01,2014-03-08 08:00:00,
2014-03-08 03:05:00,37.3,28.1,29.98,NNW,329,3.0,6.0,69,0.00,,,0.00,9.00,VWS V14.01,2014-03-08 08:05:00,
2014-03-08 03:10:00,37.5,27.9,29.98,WNW,300,3.0,7.0,68,0.00,,,0.00,9.00,VWS V14.01,2014-03-08 08:10:00,
2014-03-08 03:15:00,37.6,27.6,29.98,WNW,299,1.0,4.0,67,0.00,,,0.00,9.00,VWS V14.01,2014-03-08 08:15:00,
2014-03-08 03:20:00,37.6,27.6,29.98,NW,310,1.0,4.0,67,0.00,,,0.00,9.00,VWS V14.01,2014-03-08 08:20:00,
2014-03-08 03:25:00,37.6,27.6,29.98,NW,311,1.0,4.0,67,0.00,,,0.00,9.00,VWS V14.01,2014-03-08 08:25:00,
2014-03-08 03:30:00,37.6,28.0,29.98,West,272,1.0,4.0,68,0.00,,,0.00,9.00,VWS V14.01,2014-03-08 08:30:00,
2014-03-08 03:35:00,37.5,27.9,29.98,West,280,2.0,3.0,68,0.00,,,0.00,9.00,VWS V14.01,2014-03-08 08:35:00,
2014-03-08 03:40:00,37.5,28.3,29.98,West,280,1.0,2.0,69,0.00,,,0.00,9.00,VWS V14.01,2014-03-08 08:40:00,
2014-03-08 03:45:00,37.3,28.4,29.98,West,281,2.0,2.0,70,0.01,,,0.01,9.00,VWS V14.01,2014-03-08 08:45:00,
2014-03-08 03:50:00,37.3,28.4,29.98,WNW,287,2.0,2.0,70,0.01,,,0.01,9.00,VWS V14.01,2014-03-08 08:50:00,
2014-03-08 03:55:00,37.2,29.0,29.98,NW,326,2.0,4.0,72,0.01,,,0.01,9.00,VWS V14.01,2014-03-08 08:55:00,
2014-03-08 04:00:00,37.0,29.2,29.98,NW,314,1.0,4.0,73,0.01,,,0.01,9.00,VWS V14.01,2014-03-08 09:00:00,
2014-03-08 04:04:00,36.9,29.4,29.98,NW,322,0.0,3.0,74,0.01,,-RA,0.01,9.00,VWS V14.01,2014-03-08 09:04:00,
2014-03-08 04:09:00,36.8,29.6,29.98,NW,310,2.0,3.0,75,0.01,,-RA,0.01,9.00,VWS V14.01,2014-03-08 09:09:00,
2014-03-08 04:14:00,36.6,29.8,29.99,NW,317,1.0,4.0,76,0.01,,-RA,0.01,9.00,VWS V14.01,2014-03-08 09:14:00,
2014-03-08 04:19:00,36.6,29.8,29.99,NW,305,3.0,3.0,76,0.01,,-RA,0.01,9.00,VWS V14.01,2014-03-08 09:19:00,
2014-03-08 04:24:00,36.5,30.0,29.99,WNW,301,3.0,4.0,77,0.01,,-RA,0.01,9.00,VWS V14.01,2014-03-08 09:24:00,
2014-03-08 04:29:00,36.5,30.3,30.00,NW,308,1.0,4.0,78,0.01,,-RA,0.01,9.00,VWS V14.01,2014-03-08 09:29:00,
2014-03-08 04:34:00,36.3,30.4,30.00,NW,304,1.0,2.0,79,0.01,,-RA,0.01,9.00,VWS V14.01,2014-03-08 09:34:00,
2014-03-08 04:39:00,36.3,30.4,30.00,NW,322,1.0,3.0,79,0.01,,-RA,0.01,9.00,VWS V14.01,2014-03-08 09:39:00,
2014-03-08 04:44:00,36.2,30.6,30.00,NW,322,2.0,2.0,80,0.01,,-RA,0.01,9.00,VWS V14.01,2014-03-08 09:44:00,
2014-03-08 04:49:00,36.2,30.9,30.00,NW,322,1.0,2.0,81,0.00,,-RA,0.01,9.00,VWS V14.01,2014-03-08 09:49:00,
2014-03-08 04:54:00,36.0,30.8,30.00,NW,313,0.0,1.0,81,0.00,,-RA,0.01,9.00,VWS V14.01,2014-03-08 09:54:00,
2014-03-08 04:59:00,36.0,30.8,30.00,NW,313,1.0,1.0,81,0.00,,-RA,0.01,9.00,VWS V14.01,2014-03-08 09:59:00,
2014-03-08 05:04:00,35.9,31.0,30.00,NW,318,1.0,3.0,82,0.00,,-RA,0.01,9.00,VWS V14.01,2014-03-08 10:04:00,
2014-03-08 05:09:00,36.0,31.4,30.00,WNW,289,1.0,4.0,83,0.00,,-RA,0.01,9.00,VWS V14.01,2014-03-08 10:09:00,
2014-03-08 05:14:00,36.0,31.4,30.00,NW,316,2.0,3.0,83,0.00,,-RA,0.01,9.00,VWS V14.01,2014-03-08 10:14:00,
2014-03-08 05:19:00,36.2,31.8,30.00,NW,306,2.0,4.0,84,0.00,,-RA,0.01,9.00,VWS V14.01,2014-03-08 10:19:00,
2014-03-08 05:24:00,36.0,31.6,30.00,WNW,299,3.0,5.0,84,0.00,,-RA,0.01,9.00,VWS V14.01,2014-03-08 10:24:00,
2014-03-08 05:29:00,36.0,31.9,30.00,NW,315,2.0,3.0,85,0.00,,-RA,0.01,9.00,VWS V14.01,2014-03-08 10:29:00,
2014-03-08 05:34:00,36.0,31.9,30.01,NW,315,2.0,4.0,85,0.00,,-RA,0.01,9.00,VWS V14.01,2014-03-08 10:34:00,
2014-03-08 05:39:00,36.0,31.9,30.01,NNW,330,1.0,3.0,85,0.00,,-RA,0.01,9.00,VWS V14.01,2014-03-08 10:39:00,
2014-03-08 05:44:00,36.0,31.9,30.01,NW,315,2.0,3.0,85,0.00,,-RA,0.01,9.00,VWS V14.01,2014-03-08 10:44:00,
2014-03-08 05:49:00,35.9,32.1,30.01,NW,318,2.0,4.0,86,0.00,,-RA,0.01,9.00,VWS V14.01,2014-03-08 10:49:00,
2014-03-08 05:54:00,36.0,32.2,30.01,NW,320,1.0,6.0,86,0.01,,-RA,0.02,9.00,VWS V14.01,2014-03-08 10:54:00,
2014-03-08 05:59:00,36.0,32.2,30.01,NW,306,2.0,6.0,86,0.01,,-RA,0.02,9.00,VWS V14.01,2014-03-08 10:59:00,
2014-03-08 06:04:00,35.9,32.1,30.01,NW,320,3.0,4.0,86,0.01,,,0.02,9.00,VWS V14.01,2014-03-08 11:04:00,
2014-03-08 06:09:00,35.9,32.1,30.01,NW,315,1.0,4.0,86,0.01,,,0.02,9.00,VWS V14.01,2014-03-08 11:09:00,
2014-03-08 06:14:00,35.9,32.1,30.01,NW,314,2.0,4.0,86,0.01,,,0.02,9.00,VWS V14.01,2014-03-08 11:14:00,
2014-03-08 06:19:00,35.9,32.1,30.02,NW,318,1.0,5.0,86,0.01,,,0.02,9.00,VWS V14.01,2014-03-08 11:19:00,
2014-03-08 06:24:00,35.8,32.0,30.02,NW,320,1.0,4.0,86,0.01,,,0.02,9.00,VWS V14.01,2014-03-08 11:24:00,
2014-03-08 06:29:00,35.8,32.0,30.02,West,275,1.0,3.0,86,0.01,,,0.02,9.00,VWS V14.01,2014-03-08 11:29:00,
2014-03-08 06:34:00,35.8,32.0,30.02,NW,318,2.0,4.0,86,0.01,,,0.02,9.00,VWS V14.01,2014-03-08 11:34:00,
2014-03-08 06:39:00,35.8,32.0,30.02,NW,318,1.0,3.0,86,0.01,,,0.02,9.00,VWS V14.01,2014-03-08 11:39:00,
2014-03-08 06:44:00,35.8,32.0,30.02,NW,321,1.0,4.0,86,0.01,,,0.02,9.00,VWS V14.01,2014-03-08 11:44:00,
2014-03-08 06:49:00,35.6,31.8,30.03,NW,321,1.0,2.0,86,0.01,,,0.02,0.00,VWS V14.01,2014-03-08 11:49:00,
2014-03-08 06:54:00,35.6,31.8,30.03,NW,310,1.0,2.0,86,0.01,,,0.02,0.00,VWS V14.01,2014-03-08 11:54:00,
2014-03-08 07:02:00,35.5,31.7,30.04,NW,316,3.0,3.0,86,0.00,,,0.02,0.00,VWS V14.01,2014-03-08 12:02:00,
2014-03-08 07:07:00,35.5,31.7,30.04,NW,310,3.0,3.0,86,0.00,,,0.02,0.00,VWS V14.01,2014-03-08 12:07:00,
2014-03-08 07:12:00,35.5,31.7,30.04,NNW,328,2.0,3.0,86,0.00,,,0.02,5.00,VWS V14.01,2014-03-08 12:12:00,
2014-03-08 07:17:00,35.5,31.7,30.04,NW,323,0.0,2.0,86,0.00,,,0.02,9.00,VWS V14.01,2014-03-08 12:17:00,
2014-03-08 07:22:00,35.5,31.7,30.04,NNW,328,2.0,3.0,86,0.00,,,0.02,11.00,VWS V14.01,2014-03-08 12:22:00,
2014-03-08 07:27:00,35.5,32.0,30.04,NNW,328,1.0,2.0,87,0.00,,,0.02,19.00,VWS V14.01,2014-03-08 12:27:00,
2014-03-08 07:32:00,35.5,32.0,30.04,WNW,297,3.0,4.0,87,0.00,,,0.02,18.00,VWS V14.01,2014-03-08 12:32:00,
2014-03-08 07:37:00,35.5,32.0,30.04,NNW,330,3.0,5.0,87,0.00,,,0.02,19.00,VWS V14.01,2014-03-08 12:37:00,
2014-03-08 07:42:00,35.6,31.8,30.04,NNW,328,2.0,4.0,86,0.00,,,0.02,21.00,VWS V14.01,2014-03-08 12:42:00,
2014-03-08 07:47:00,35.8,32.0,30.05,NW,309,0.0,4.0,86,0.00,,,0.02,26.00,VWS V14.01,2014-03-08 12:47:00,
2014-03-08 07:52:00,35.8,32.0,30.05,North,352,3.0,4.0,86,0.00,,,0.02,42.00,VWS V14.01,2014-03-08 12:52:00,
2014-03-08 07:57:00,35.9,32.1,30.05,NNW,338,2.0,4.0,86,0.00,,,0.02,46.00,VWS V14.01,2014-03-08 12:57:00,
2014-03-08 08:02:00,35.9,32.1,30.05,NNW,337,1.0,4.0,86,0.00,,,0.02,65.00,VWS V14.01,2014-03-08 13:02:00,
2014-03-08 08:07:00,36.0,31.9,30.05,NW,326,1.0,3.0,85,0.00,,,0.02,46.00,VWS V14.01,2014-03-08 13:07:00,
2014-03-08 08:12:00,36.0,31.9,30.05,NW,307,2.0,4.0,85,0.00,,,0.02,32.00,VWS V14.01,2014-03-08 13:12:00,
2014-03-08 08:17:00,35.9,31.8,30.06,NNW,346,2.0,5.0,85,0.00,,,0.02,28.00,VWS V14.01,2014-03-08 13:17:00,
2014-03-08 08:22:00,35.9,31.5,30.06,North,10,1.0,5.0,84,0.00,,,0.02,37.00,VWS V14.01,2014-03-08 13:22:00,
2014-03-08 08:27:00,35.9,31.5,30.06,NNW,330,2.0,5.0,84,0.00,,,0.02,32.00,VWS V14.01,2014-03-08 13:27:00,
2014-03-08 08:32:00,35.9,31.5,30.07,NW,318,3.0,4.0,84,0.00,,,0.02,28.00,VWS V14.01,2014-03-08 13:32:00,
2014-03-08 08:37:00,35.8,31.5,30.07,NNW,345,2.0,5.0,84,0.00,,,0.02,28.00,VWS V14.01,2014-03-08 13:37:00,
2014-03-08 08:42:00,35.6,31.2,30.07,NNW,335,2.0,7.0,84,0.00,,,0.02,37.00,VWS V14.01,2014-03-08 13:42:00,
2014-03-08 08:47:00,35.6,31.2,30.07,NNW,345,2.0,3.0,84,0.00,,,0.02,42.00,VWS V14.01,2014-03-08 13:47:00,
2014-03-08 08:52:00,35.5,31.1,30.07,NNE,31,3.0,4.0,84,0.00,,,0.02,54.00,VWS V14.01,2014-03-08 13:52:00,
2014-03-08 08:57:00,35.3,31.2,30.07,North,2,3.0,5.0,85,0.00,,,0.02,51.00,VWS V14.01,2014-03-08 13:57:00,
2014-03-08 09:02:00,35.0,31.0,30.08,North,354,4.0,6.0,85,0.00,,,0.02,39.00,VWS V14.01,2014-03-08 14:02:00,
2014-03-08 09:07:00,34.1,30.1,30.08,NE,53,6.0,13.0,85,0.00,,,0.02,53.00,VWS V14.01,2014-03-08 14:07:00,
2014-03-08 09:12:00,33.4,29.7,30.08,NE,48,6.0,11.0,86,0.00,,,0.02,49.00,VWS V14.01,2014-03-08 14:12:00,
2014-03-08 09:17:00,32.9,29.5,30.10,ESE,112,5.0,8.0,87,0.00,,,0.02,74.00,VWS V14.01,2014-03-08 14:17:00,
2014-03-08 09:22:00,32.8,29.4,30.10,NE,51,6.0,9.0,87,0.00,,,0.02,62.00,VWS V14.01,2014-03-08 14:22:00,
2014-03-08 09:26:00,32.8,29.6,30.10,NE,56,5.0,7.0,88,0.00,,,0.02,54.00,VWS V14.01,2014-03-08 14:26:00,
2014-03-08 09:31:00,32.7,29.5,30.10,ENE,61,2.0,4.0,88,0.00,,,0.02,63.00,VWS V14.01,2014-03-08 14:31:00,
2014-03-08 09:36:00,32.7,29.5,30.10,NE,47,4.0,5.0,88,0.00,,,0.02,84.00,VWS V14.01,2014-03-08 14:36:00,
2014-03-08 09:41:00,32.7,29.8,30.10,NE,55,6.0,9.0,89,0.00,,,0.02,97.00,VWS V14.01,2014-03-08 14:41:00,
2014-03-08 09:46:00,32.7,29.8,30.10,NE,43,4.0,7.0,89,0.00,,,0.02,90.00,VWS V14.01,2014-03-08 14:46:00,
2014-03-08 09:51:00,32.7,29.8,30.10,East,86,5.0,6.0,89,0.00,,,0.02,95.00,VWS V14.01,2014-03-08 14:51:00,
2014-03-08 09:56:00,32.7,29.8,30.10,NE,50,5.0,8.0,89,0.00,,,0.02,91.00,VWS V14.01,2014-03-08 14:56:00,
2014-03-08 10:01:00,32.7,29.8,30.11,NE,52,5.0,5.0,89,0.00,,,0.02,86.00,VWS V14.01,2014-03-08 15:01:00,
2014-03-08 10:06:00,32.7,29.8,30.11,NNE,28,7.0,7.0,89,0.00,,,0.02,88.00,VWS V14.01,2014-03-08 15:06:00,
2014-03-08 10:11:00,32.4,29.5,30.11,ENE,66,4.0,6.0,89,0.00,,,0.02,95.00,VWS V14.01,2014-03-08 15:11:00,
2014-03-08 10:16:00,32.1,29.2,30.11,ENE,76,5.0,9.0,89,0.00,,,0.02,142.00,VWS V14.01,2014-03-08 15:16:00,
2014-03-08 10:21:00,31.9,29.0,30.11,NE,51,4.0,4.0,89,0.00,,,0.02,156.00,VWS V14.01,2014-03-08 15:21:00,
2014-03-08 10:26:00,31.9,29.0,30.11,NE,52,3.0,6.0,89,0.01,,,0.03,142.00,VWS V14.01,2014-03-08 15:26:00,
2014-03-08 10:31:00,31.6,28.7,30.12,ENE,59,4.0,6.0,89,0.01,,,0.03,156.00,VWS V14.01,2014-03-08 15:31:00,
2014-03-08 10:35:00,31.5,28.6,30.12,East,96,2.0,6.0,89,0.01,,,0.03,162.00,VWS V14.01,2014-03-08 15:35:00,
2014-03-08 10:40:00,31.6,28.7,30.12,NE,44,3.0,7.0,89,0.01,,,0.03,178.00,VWS V14.01,2014-03-08 15:40:00,
2014-03-08 10:45:00,31.6,28.7,30.12,ENE,74,2.0,4.0,89,0.01,,,0.03,167.00,VWS V14.01,2014-03-08 15:45:00,
2014-03-08 10:50:00,31.6,28.7,30.12,ENE,76,4.0,6.0,89,0.01,,,0.03,165.00,VWS V14.01,2014-03-08 15:50:00,
2014-03-08 10:55:00,31.5,28.6,30.12,ENE,72,5.0,5.0,89,0.01,,,0.03,155.00,VWS V14.01,2014-03-08 15:55:00,
2014-03-08 11:00:00,31.3,28.4,30.13,NE,51,2.0,7.0,89,0.01,,,0.03,141.00,VWS V14.01,2014-03-08 16:00:00,
2014-03-08 11:05:00,31.3,28.4,30.13,NE,43,4.0,5.0,89,0.01,,,0.03,135.00,VWS V14.01,2014-03-08 16:05:00,
2014-03-08 11:10:00,31.3,28.4,30.13,NE,51,5.0,7.0,89,0.01,,,0.03,200.00,VWS V14.01,2014-03-08 16:10:00,
2014-03-08 11:15:00,31.5,28.6,30.13,ENE,63,4.0,5.0,89,0.01,,,0.03,244.00,VWS V14.01,2014-03-08 16:15:00,
2014-03-08 11:20:00,31.5,28.6,30.13,ENE,61,5.0,8.0,89,0.01,,,0.03,229.00,VWS V14.01,2014-03-08 16:20:00,
2014-03-08 11:25:00,31.5,28.6,30.13,ENE,63,8.0,9.0,89,0.00,,,0.03,236.00,VWS V14.01,2014-03-08 16:25:00,
2014-03-08 11:30:00,31.6,28.7,30.13,NE,41,3.0,4.0,89,0.00,,,0.03,269.00,VWS V14.01,2014-03-08 16:30:00,
2014-03-08 11:35:00,31.8,28.9,30.13,NE,38,4.0,4.0,89,0.00,,,0.03,253.00,VWS V14.01,2014-03-08 16:35:00,
2014-03-08 11:40:00,31.8,28.9,30.13,ENE,73,4.0,6.0,89,0.00,,,0.03,311.00,VWS V14.01,2014-03-08 16:40:00,
2014-03-08 11:45:00,31.9,29.0,30.13,NNE,33,6.0,6.0,89,0.01,,,0.04,264.00,VWS V14.01,2014-03-08 16:45:00,
2014-03-08 11:48:00,31.8,28.9,30.13,ENE,70,6.0,7.0,89,0.01,,,0.04,214.00,VWS V14.01,2014-03-08 16:48:00,
2014-03-08 11:53:00,31.6,28.7,30.13,East,85,5.0,7.0,89,0.01,,,0.04,190.00,VWS V14.01,2014-03-08 16:53:00,
2014-03-08 11:58:00,31.5,28.6,30.13,ENE,77,4.0,7.0,89,0.01,,,0.04,200.00,VWS V14.01,2014-03-08 16:58:00,
2014-03-08 12:03:00,31.5,28.6,30.13,NE,56,3.0,9.0,89,0.01,,,0.04,192.00,VWS V14.01,2014-03-08 17:03:00,
2014-03-08 12:08:00,31.5,28.9,30.13,ENE,68,5.0,7.0,90,0.01,,,0.04,171.00,VWS V14.01,2014-03-08 17:08:00,
2014-03-08 12:13:00,31.5,28.9,30.13,NE,56,4.0,5.0,90,0.01,,,0.04,149.00,VWS V14.01,2014-03-08 17:13:00,
2014-03-08 12:18:00,31.3,28.7,30.13,East,85,4.0,8.0,90,0.01,,,0.04,190.00,VWS V14.01,2014-03-08 17:18:00,
2014-03-08 12:23:00,31.2,28.6,30.13,ENE,57,6.0,7.0,90,0.01,,,0.04,141.00,VWS V14.01,2014-03-08 17:23:00,
2014-03-08 12:28:00,31.0,28.4,30.13,NE,49,5.0,9.0,90,0.01,,,0.04,123.00,VWS V14.01,2014-03-08 17:28:00,
2014-03-08 12:33:00,30.9,28.3,30.13,NE,48,5.0,8.0,90,0.01,,,0.04,174.00,VWS V14.01,2014-03-08 17:33:00,
2014-03-08 12:38:00,30.6,28.0,30.13,ENE,74,4.0,10.0,90,0.01,,,0.04,239.00,VWS V14.01,2014-03-08 17:38:00,
2014-03-08 12:43:00,30.6,27.8,30.13,East,100,5.0,9.0,89,0.02,,,0.05,269.00,VWS V14.01,2014-03-08 17:43:00,
2014-03-08 12:48:00,30.4,27.5,30.12,NE,49,5.0,10.0,89,0.01,,,0.05,243.00,VWS V14.01,2014-03-08 17:48:00,
2014-03-08 12:53:00,30.6,27.8,30.12,NNE,27,7.0,7.0,89,0.01,,,0.05,216.00,VWS V14.01,2014-03-08 17:53:00,
2014-03-08 12:58:00,30.6,27.8,30.12,ENE,57,13.0,13.0,89,0.01,,,0.05,211.00,VWS V14.01,2014-03-08 17:58:00,
2014-03-08 13:03:00,30.3,27.5,30.12,NE,54,8.0,14.0,89,0.01,,,0.05,216.00,VWS V14.01,2014-03-08 18:03:00,
2014-03-08 13:08:00,30.3,27.5,30.12,ENE,62,5.0,11.0,89,0.01,,,0.05,200.00,VWS V14.01,2014-03-08 18:08:00,
2014-03-08 13:13:00,30.1,27.3,30.12,ENE,77,5.0,8.0,89,0.01,,,0.05,176.00,VWS V14.01,2014-03-08 18:13:00,
2014-03-08 13:18:00,30.1,27.5,30.12,ENE,63,7.0,10.0,90,0.01,,,0.05,153.00,VWS V14.01,2014-03-08 18:18:00,
2014-03-08 13:23:00,30.1,27.3,30.12,NE,52,6.0,9.0,89,0.01,,,0.05,146.00,VWS V14.01,2014-03-08 18:23:00,
2014-03-08 13:28:00,30.0,27.2,30.12,ENE,73,5.0,9.0,89,0.01,,,0.05,179.00,VWS V14.01,2014-03-08 18:28:00,
2014-03-08 13:33:00,29.7,26.9,30.12,ENE,60,7.0,11.0,89,0.01,,,0.05,225.00,VWS V14.01,2014-03-08 18:33:00,
2014-03-08 13:38:00,29.7,27.1,30.12,ENE,62,5.0,7.0,90,0.01,,,0.05,262.00,VWS V14.01,2014-03-08 18:38:00,
2014-03-08 13:43:00,29.8,27.2,30.12,ENE,68,5.0,8.0,90,0.01,,,0.05,292.00,VWS V14.01,2014-03-08 18:43:00,
2014-03-08 13:48:00,29.8,27.2,30.13,NE,42,2.0,8.0,90,0.00,,,0.05,258.00,VWS V14.01,2014-03-08 18:48:00,
2014-03-08 13:53:00,29.8,27.0,30.13,ENE,60,4.0,7.0,89,0.00,,,0.05,193.00,VWS V14.01,2014-03-08 18:53:00,
2014-03-08 13:58:00,29.7,26.9,30.13,East,81,5.0,9.0,89,0.01,,,0.06,230.00,VWS V14.01,2014-03-08 18:58:00,
2014-03-08 14:03:00,29.8,27.0,30.13,East,91,7.0,7.0,89,0.01,,,0.06,279.00,VWS V14.01,2014-03-08 19:03:00,
2014-03-08 14:08:00,29.8,27.0,30.13,ENE,64,2.0,6.0,89,0.01,,,0.06,281.00,VWS V14.01,2014-03-08 19:08:00,
2014-03-08 14:13:00,30.0,27.4,30.13,ENE,68,4.0,5.0,90,0.01,,,0.06,269.00,VWS V14.01,2014-03-08 19:13:00,
2014-03-08 14:18:00,29.8,27.0,30.13,ENE,69,7.0,8.0,89,0.01,,,0.06,248.00,VWS V14.01,2014-03-08 19:18:00,
2014-03-08 14:23:00,29.8,27.0,30.13,ENE,60,4.0,6.0,89,0.02,,,0.07,241.00,VWS V14.01,2014-03-08 19:23:00,
2014-03-08 14:28:00,29.8,27.0,30.13,East,82,4.0,6.0,89,0.02,,,0.07,244.00,VWS V14.01,2014-03-08 19:28:00,
2014-03-08 14:33:00,29.8,27.2,30.13,NE,49,1.0,6.0,90,0.02,,,0.07,267.00,VWS V14.01,2014-03-08 19:33:00,
2014-03-08 14:38:00,30.1,27.5,30.13,NE,54,3.0,7.0,90,0.02,,,0.07,243.00,VWS V14.01,2014-03-08 19:38:00,
2014-03-08 14:43:00,30.0,27.2,30.13,ENE,78,5.0,8.0,89,0.02,,,0.07,258.00,VWS V14.01,2014-03-08 19:43:00,
2014-03-08 14:48:00,30.0,27.2,30.13,East,79,4.0,9.0,89,0.02,,,0.07,243.00,VWS V14.01,2014-03-08 19:48:00,
2014-03-08 14:53:00,30.0,27.2,30.13,ENE,63,6.0,7.0,89,0.02,,,0.07,225.00,VWS V14.01,2014-03-08 19:53:00,
2014-03-08 14:58:00,29.7,26.9,30.13,East,80,4.0,8.0,89,0.02,,,0.07,257.00,VWS V14.01,2014-03-08 19:58:00,
2014-03-08 15:03:00,29.7,26.9,30.13,NE,56,2.0,6.0,89,0.01,,,0.07,211.00,VWS V14.01,2014-03-08 20:03:00,
2014-03-08 15:08:00,29.8,27.0,30.13,ENE,66,3.0,8.0,89,0.01,,,0.07,214.00,VWS V14.01,2014-03-08 20:08:00,
2014-03-08 15:13:00,30.0,26.9,30.13,ENE,71,1.0,7.0,88,0.01,,,0.07,227.00,VWS V14.01,2014-03-08 20:13:00,
2014-03-08 15:18:00,30.1,27.0,30.13,East,81,5.0,7.0,88,0.01,,,0.07,234.00,VWS V14.01,2014-03-08 20:18:00,
2014-03-08 15:23:00,30.0,26.9,30.13,ENE,68,5.0,7.0,88,0.00,,,0.07,183.00,VWS V14.01,2014-03-08 20:23:00,
2014-03-08 15:28:00,30.0,26.9,30.13,ENE,62,3.0,7.0,88,0.01,,,0.08,178.00,VWS V14.01,2014-03-08 20:28:00,
2014-03-08 15:32:00,30.1,27.0,30.13,East,89,5.0,5.0,88,0.01,,,0.08,144.00,VWS V14.01,2014-03-08 20:32:00,
2014-03-08 15:37:00,30.1,27.0,30.13,ENE,66,3.0,3.0,88,0.01,,,0.08,128.00,VWS V14.01,2014-03-08 20:37:00,
2014-03-08 15:42:00,30.0,26.9,30.13,ENE,74,1.0,5.0,88,0.01,,,0.08,114.00,VWS V14.01,2014-03-08 20:42:00,
2014-03-08 15:47:00,29.8,26.7,30.14,East,91,3.0,5.0,88,0.01,,,0.08,111.00,VWS V14.01,2014-03-08 20:47:00,
2014-03-08 15:52:00,29.8,26.7,30.14,ENE,66,2.0,4.0,88,0.01,,,0.08,105.00,VWS V14.01,2014-03-08 20:52:00,
2014-03-08 15:57:00,29.8,26.7,30.14,ENE,64,1.0,4.0,88,0.01,,,0.08,97.00,VWS V14.01,2014-03-08 20:57:00,
2014-03-08 16:02:00,29.7,26.6,30.14,ESE,103,1.0,6.0,88,0.01,,,0.08,97.00,VWS V14.01,2014-03-08 21:02:00,
2014-03-08 16:07:00,29.7,26.6,30.14,NE,54,2.0,4.0,88,0.01,,,0.08,98.00,VWS V14.01,2014-03-08 21:07:00,
2014-03-08 16:12:00,29.5,26.4,30.14,ENE,60,0.0,3.0,88,0.01,,,0.08,111.00,VWS V14.01,2014-03-08 21:12:00,
2014-03-08 16:17:00,29.5,26.4,30.14,ENE,77,2.0,5.0,88,0.01,,,0.08,111.00,VWS V14.01,2014-03-08 21:17:00,
2014-03-08 16:22:00,29.5,26.4,30.14,ENE,77,2.0,3.0,88,0.01,,,0.08,111.00,VWS V14.01,2014-03-08 21:22:00,
2014-03-08 16:27:00,29.5,26.4,30.14,ENE,77,1.0,4.0,88,0.01,,,0.08,102.00,VWS V14.01,2014-03-08 21:27:00,
2014-03-08 16:32:00,29.4,26.3,30.14,East,82,2.0,4.0,88,0.00,,,0.08,100.00,VWS V14.01,2014-03-08 21:32:00,
2014-03-08 16:37:00,29.4,26.6,30.14,ENE,60,2.0,4.0,89,0.00,,,0.08,107.00,VWS V14.01,2014-03-08 21:37:00,
2014-03-08 16:42:00,29.4,26.6,30.14,ENE,73,3.0,3.0,89,0.00,,,0.08,104.00,VWS V14.01,2014-03-08 21:42:00,
2014-03-08 16:47:00,29.4,26.6,30.14,East,85,2.0,4.0,89,0.00,,,0.08,105.00,VWS V14.01,2014-03-08 21:47:00,
2014-03-08 16:52:00,29.4,26.6,30.14,ENE,77,2.0,4.0,89,0.00,,,0.08,97.00,VWS V14.01,2014-03-08 21:52:00,
2014-03-08 16:53:00,29.4,26.6,30.14,East,79,3.0,4.0,89,0.00,,,0.08,97.00,VWS V14.01,2014-03-08 21:53:00,
2014-03-08 16:58:00,29.4,26.6,30.14,ENE,71,1.0,3.0,89,0.00,,,0.08,81.00,VWS V14.01,2014-03-08 21:58:00,
2014-03-08 17:03:00,29.1,26.3,30.14,East,87,1.0,4.0,89,0.00,,,0.08,69.00,VWS V14.01,2014-03-08 22:03:00,
2014-03-08 17:08:00,29.1,26.3,30.14,NE,54,3.0,4.0,89,0.00,,,0.08,58.00,VWS V14.01,2014-03-08 22:08:00,
2014-03-08 17:13:00,29.0,26.2,30.14,East,85,3.0,5.0,89,0.00,,,0.08,51.00,VWS V14.01,2014-03-08 22:13:00,
2014-03-08 17:18:00,29.0,26.2,30.14,ENE,62,2.0,4.0,89,0.00,,,0.08,42.00,VWS V14.01,2014-03-08 22:18:00,
2014-03-08 17:23:00,29.0,26.2,30.14,ENE,69,2.0,4.0,89,0.00,,,0.08,35.00,VWS V14.01,2014-03-08 22:23:00,
2014-03-08 17:28:00,28.8,26.0,30.14,ENE,68,2.0,4.0,89,0.00,,,0.08,28.00,VWS V14.01,2014-03-08 22:28:00,
2014-03-08 17:33:00,28.8,26.0,30.15,ENE,60,0.0,3.0,89,0.00,,,0.08,28.00,VWS V14.01,2014-03-08 22:33:00,
2014-03-08 17:38:00,28.8,26.0,30.15,ENE,74,1.0,1.0,89,0.00,,,0.08,25.00,VWS V14.01,2014-03-08 22:38:00,
2014-03-08 17:43:00,28.8,26.0,30.15,ENE,65,2.0,2.0,89,0.00,,,0.08,26.00,VWS V14.01,2014-03-08 22:43:00,
2014-03-08 17:48:00,28.8,26.0,30.15,ENE,65,2.0,3.0,89,0.00,,,0.08,25.00,VWS V14.01,2014-03-08 22:48:00,
2014-03-08 17:53:00,28.8,26.0,30.15,ENE,65,1.0,2.0,89,0.00,,,0.08,21.00,VWS V14.01,2014-03-08 22:53:00,
2014-03-08 17:58:00,28.8,26.0,30.15,ENE,65,0.0,1.0,89,0.00,,,0.08,12.00,VWS V14.01,2014-03-08 22:58:00,
2014-03-08 18:03:00,28.8,26.0,30.16,ENE,65,0.0,2.0,89,0.00,,,0.08,7.00,VWS V14.01,2014-03-08 23:03:00,
2014-03-08 18:08:00,28.8,26.0,30.16,ENE,65,0.0,1.0,89,0.00,,,0.08,9.00,VWS V14.01,2014-03-08 23:08:00,
2014-03-08 18:13:00,28.8,26.0,30.16,ENE,65,0.0,1.0,89,0.00,,,0.08,9.00,VWS V14.01,2014-03-08 23:13:00,
2014-03-08 18:18:00,29.0,26.2,30.17,ENE,65,0.0,0.0,89,0.00,,,0.08,7.00,VWS V14.01,2014-03-08 23:18:00,
2014-03-08 18:23:00,29.0,26.2,30.17,ENE,65,0.0,0.0,89,0.00,,,0.08,0.00,VWS V14.01,2014-03-08 23:23:00,
2014-03-08 18:28:00,29.0,26.2,30.17,ENE,65,0.0,0.0,89,0.00,,,0.08,0.00,VWS V14.01,2014-03-08 23:28:00,
2014-03-08 18:33:00,29.0,26.2,30.17,ENE,65,0.0,0.0,89,0.00,,,0.08,0.00,VWS V14.01,2014-03-08 23:33:00,
2014-03-08 18:38:00,29.0,26.2,30.17,ENE,65,0.0,0.0,89,0.00,,,0.08,0.00,VWS V14.01,2014-03-08 23:38:00,
2014-03-08 18:43:00,29.0,26.2,30.17,ENE,65,0.0,1.0,89,0.00,,,0.08,0.00,VWS V14.01,2014-03-08 23:43:00,
2014-03-08 18:48:00,29.0,26.2,30.17,ENE,65,0.0,0.0,89,0.00,,,0.08,0.00,VWS V14.01,2014-03-08 23:48:00,
2014-03-08 18:53:00,28.8,26.0,30.17,ENE,65,0.0,0.0,89,0.00,,,0.08,9.00,VWS V14.01,2014-03-08 23:53:00,
2014-03-08 18:58:00,28.8,26.0,30.17,ENE,65,0.0,0.0,89,0.00,,,0.08,9.00,VWS V14.01,2014-03-08 23:58:00,
2014-03-08 19:03:00,28.8,26.0,30.18,ENE,65,0.0,0.0,89,0.00,,,0.08,9.00,VWS V14.01,2014-03-09 00:03:00,
2014-03-08 19:08:00,28.8,26.0,30.18,ENE,65,0.0,0.0,89,0.00,,,0.08,9.00,VWS V14.01,2014-03-09 00:08:00,
2014-03-08 19:13:00,28.8,26.0,30.18,ENE,65,0.0,0.0,89,0.00,,,0.08,9.00,VWS V14.01,2014-03-09 00:13:00,
2014-03-08 19:18:00,28.8,26.0,30.18,ENE,65,0.0,0.0,89,0.00,,,0.08,9.00,VWS V14.01,2014-03-09 00:18:00,
2014-03-08 19:23:00,28.8,26.0,30.18,ENE,65,0.0,0.0,89,0.00,,,0.08,9.00,VWS V14.01,2014-03-09 00:23:00,
2014-03-08 19:28:00,28.8,26.0,30.18,ENE,65,0.0,0.0,89,0.00,,,0.08,9.00,VWS V14.01,2014-03-09 00:28:00,
2014-03-08 19:33:00,28.8,26.0,30.18,ENE,65,0.0,0.0,89,0.00,,,0.08,9.00,VWS V14.01,2014-03-09 00:33:00,
2014-03-08 19:38:00,28.8,26.0,30.18,ENE,65,0.0,0.0,89,0.00,,,0.08,9.00,VWS V14.01,2014-03-09 00:38:00,
2014-03-08 19:43:00,28.8,26.0,30.18,ENE,65,0.0,1.0,89,0.00,,,0.08,9.00,VWS V14.01,2014-03-09 00:43:00,
2014-03-08 19:48:00,28.8,26.0,30.18,ENE,65,1.0,1.0,89,0.00,,,0.08,9.00,VWS V14.01,2014-03-09 00:48:00,
2014-03-08 19:53:00,28.8,26.0,30.18,ESE,106,0.0,2.0,89,0.00,,,0.08,9.00,VWS V14.01,2014-03-09 00:53:00,
2014-03-08 19:58:00,28.8,26.0,30.18,ESE,116,1.0,2.0,89,0.00,,,0.08,9.00,VWS V14.01,2014-03-09 00:58:00,
2014-03-08 20:03:00,28.8,26.0,30.19,ESE,116,0.0,1.0,89,0.00,,,0.08,9.00,VWS V14.01,2014-03-09 01:03:00,
2014-03-08 20:08:00,28.8,26.0,30.19,ESE,116,0.0,0.0,89,0.00,,,0.08,9.00,VWS V14.01,2014-03-09 01:08:00,
2014-03-08 20:13:00,28.8,26.0,30.19,ESE,116,0.0,0.0,89,0.00,,,0.08,9.00,VWS V14.01,2014-03-09 01:13:00,
2014-03-08 20:18:00,28.8,26.0,30.19,ESE,116,0.0,0.0,89,0.00,,,0.08,9.00,VWS V14.01,2014-03-09 01:18:00,
2014-03-08 20:23:00,28.7,25.9,30.19,ESE,116,0.0,0.0,89,0.00,,,0.08,9.00,VWS V14.01,2014-03-09 01:23:00,
2014-03-08 20:28:00,28.8,26.0,30.19,ESE,116,0.0,0.0,89,0.00,,,0.08,9.00,VWS V14.01,2014-03-09 01:28:00,
2014-03-08 20:33:00,28.8,26.0,30.19,ESE,116,0.0,0.0,89,0.00,,,0.08,9.00,VWS V14.01,2014-03-09 01:33:00,
2014-03-08 20:38:00,28.8,26.0,30.19,ESE,116,0.0,0.0,89,0.00,,,0.08,9.00,VWS V14.01,2014-03-09 01:38:00,
2014-03-08 20:43:00,28.8,26.0,30.19,ESE,116,0.0,0.0,89,0.00,,,0.08,9.00,VWS V14.01,2014-03-09 01:43:00,
2014-03-08 20:48:00,28.8,26.0,30.19,ESE,116,0.0,2.0,89,0.00,,,0.08,9.00,VWS V14.01,2014-03-09 01:48:00,
2014-03-08 20:53:00,28.7,25.9,30.19,ESE,116,0.0,0.0,89,0.00,,,0.08,9.00,VWS V14.01,2014-03-09 01:53:00,
2014-03-08 20:58:00,28.7,25.9,30.19,ESE,116,0.0,0.0,89,0.00,,,0.08,9.00,VWS V14.01,2014-03-09 01:58:00,
2014-03-08 21:03:00,28.7,25.9,30.20,ESE,115,1.0,2.0,89,0.00,,,0.08,9.00,VWS V14.01,2014-03-09 02:03:00,
2014-03-08 21:08:00,28.8,26.0,30.20,NNE,27,0.0,2.0,89,0.00,,,0.08,9.00,VWS V14.01,2014-03-09 02:08:00,
2014-03-08 21:13:00,29.0,26.2,30.20,NNW,336,1.0,3.0,89,0.00,,,0.08,9.00,VWS V14.01,2014-03-09 02:13:00,
2014-03-08 21:18:00,29.1,26.3,30.20,NNW,336,1.0,2.0,89,0.00,,,0.08,9.00,VWS V14.01,2014-03-09 02:18:00,
2014-03-08 21:23:00,29.1,26.3,30.20,NNW,336,0.0,3.0,89,0.00,,,0.08,9.00,VWS V14.01,2014-03-09 02:23:00,
2014-03-08 21:28:00,29.3,26.2,30.20,NNW,336,1.0,2.0,88,0.00,,,0.08,9.00,VWS V14.01,2014-03-09 02:28:00,
2014-03-08 21:33:00,29.1,26.0,30.21,NNW,334,1.0,3.0,88,0.00,,,0.08,9.00,VWS V14.01,2014-03-09 02:33:00,
2014-03-08 21:38:00,29.1,25.7,30.21,NNW,328,1.0,3.0,87,0.00,,,0.08,9.00,VWS V14.01,2014-03-09 02:38:00,
2014-03-08 21:43:00,29.1,25.4,30.21,NW,311,3.0,4.0,86,0.00,,,0.08,9.00,VWS V14.01,2014-03-09 02:43:00,
2014-03-08 21:48:00,29.1,24.9,30.21,NNW,337,2.0,4.0,84,0.00,,,0.08,9.00,VWS V14.01,2014-03-09 02:48:00,
2014-03-08 21:53:00,29.1,24.6,30.21,NNW,333,0.0,4.0,83,0.00,,,0.08,9.00,VWS V14.01,2014-03-09 02:53:00,
2014-03-08 21:58:00,29.1,24.6,30.21,NW,325,3.0,5.0,83,0.00,,,0.08,9.00,VWS V14.01,2014-03-09 02:58:00,
2014-03-08 22:03:00,29.1,24.3,30.22,NNW,330,3.0,6.0,82,0.00,,OVC030,0.08,9.00,VWS V14.01,2014-03-09 03:03:00,
2014-03-08 22:08:00,29.1,24.0,30.22,WNW,303,8.0,8.0,81,0.00,,OVC028,0.08,9.00,VWS V14.01,2014-03-09 03:08:00,
2014-03-08 22:13:00,29.1,23.4,30.22,NNW,346,2.0,4.0,79,0.00,,OVC028,0.08,9.00,VWS V14.01,2014-03-09 03:13:00,
2014-03-08 22:18:00,29.0,23.3,30.21,North,7,3.0,4.0,79,0.00,,OVC028,0.08,9.00,VWS V14.01,2014-03-09 03:18:00,
2014-03-08 22:23:00,29.0,23.0,30.21,NNW,343,1.0,4.0,78,0.00,,OVC028,0.08,9.00,VWS V14.01,2014-03-09 03:23:00,
2014-03-08 22:28:00,29.0,23.0,30.21,NNE,13,2.0,3.0,78,0.00,,OVC028,0.08,9.00,VWS V14.01,2014-03-09 03:28:00,
2014-03-08 22:33:00,28.8,22.8,30.22,NNW,346,3.0,5.0,78,0.00,,OVC028,0.08,9.00,VWS V14.01,2014-03-09 03:33:00,
2014-03-08 22:38:00,28.8,23.1,30.22,North,10,2.0,5.0,79,0.00,,OVC028,0.08,9.00,VWS V14.01,2014-03-09 03:38:00,
2014-03-08 22:43:00,28.7,23.3,30.22,NNE,27,2.0,5.0,80,0.00,,OVC028,0.08,9.00,VWS V14.01,2014-03-09 03:43:00,
2014-03-08 22:48:00,28.7,23.6,30.22,NE,38,3.0,4.0,81,0.00,,OVC028,0.08,9.00,VWS V14.01,2014-03-09 03:48:00,
2014-03-08 22:53:00,28.5,23.4,30.22,NNE,12,1.0,3.0,81,0.00,,OVC028,0.08,9.00,VWS V14.01,2014-03-09 03:53:00,
2014-03-08 22:58:00,28.5,23.7,30.22,NNE,26,0.0,3.0,82,0.00,,OVC028,0.08,9.00,VWS V14.01,2014-03-09 03:58:00,
2014-03-08 23:03:00,28.4,23.6,30.22,North,1,1.0,3.0,82,0.00,,OVC026,0.08,9.00,VWS V14.01,2014-03-09 04:03:00,
2014-03-08 23:08:00,28.2,23.4,30.22,North,356,3.0,3.0,82,0.00,,OVC026,0.08,9.00,VWS V14.01,2014-03-09 04:08:00,
2014-03-08 23:13:00,28.2,23.4,30.22,NNW,344,1.0,4.0,82,0.00,,OVC026,0.08,9.00,VWS V14.01,2014-03-09 04:13:00,
2014-03-08 23:18:00,28.2,23.4,30.22,NNE,28,3.0,3.0,82,0.00,,OVC026,0.08,9.00,VWS V14.01,2014-03-09 04:18:00,
2014-03-08 23:22:00,28.1,23.0,30.22,NNE,12,2.0,3.0,81,0.00,,OVC026,0.08,9.00,VWS V14.01,2014-03-09 04:22:00,
2014-03-08 23:27:00,28.1,22.7,30.22,North,349,1.0,4.0,80,0.00,,OVC026,0.08,9.00,VWS V14.01,2014-03-09 04:27:00,
2014-03-08 23:32:00,28.2,22.5,30.23,NW,314,2.0,7.0,79,0.00,,OVC026,0.08,9.00,VWS V14.01,2014-03-09 04:32:00,
2014-03-08 23:37:00,28.2,21.6,30.23,NW,320,3.0,6.0,76,0.00,,OVC026,0.08,9.00,VWS V14.01,2014-03-09 04:37:00,
2014-03-08 23:42:00,28.2,21.0,30.23,NW,312,3.0,5.0,74,0.00,,OVC026,0.08,9.00,VWS V14.01,2014-03-09 04:42:00,
2014-03-08 23:47:00,28.2,20.4,30.22,NW,324,1.0,5.0,72,0.00,,OVC026,0.08,9.00,VWS V14.01,2014-03-09 04:47:00,
2014-03-08 23:52:00,28.1,20.2,30.22,NNW,333,2.0,3.0,72,0.00,,OVC026,0.08,9.00,VWS V14.01,2014-03-09 04:52:00,
2014-03-08 23:57:00,27.8,20.0,30.22,NNW,333,1.0,2.0,72,0.00,,OVC026,0.08,9.00,VWS V14.01,2014-03-09 04:57:00,